Home > Time Zones > World Clock > Weather > Macau > Macau > Past weeks

Flag for Macau Weather past 2 weeks in Macau, Macau

Now
82 °F

Passing clouds.


Feels Like: 92 °F
Forecast: 81 / 89 °F
Wind: 12 mph from Southwest

Location: Taipa

Current Time: Jun 4, 2015 at 2:05:33 AM

Latest Report: Jun 4, 2015 at 1:00 AM


Visibility: N/A

Pressure: 29.80 "Hg

Humidity: 89%

Dew point: 79 °F

Location of MacauLocation

Historic Weather in Macau — Graph

°F

Macau temperature yesterday

Maximum temperature yesterday: 88 °F (at 10:00 AM)
Minimum temperature yesterday: 82 °F (at 12:00 AM)
Average temperature yesterday: 85 °F

Past Weeks' High & Low Weather Summary

 TemperatureHumidityPressure
High90 °F (May 30, 12:30 PM)100% (May 21, 1:00 AM)29.86 "Hg (May 21, 1:00 AM)
Low75 °F (May 21, 5:30 PM)70% (Jun 3, 4:00 PM)29.62 "Hg (May 23, 4:30 PM)
Average82 °F89%29.72 "Hg
* Reported May 20 1:00 AM — Jun 4 1:00 AM, Macau, Weather by CustomWeather, © 2015

Note: Actual official high and low records may vary slightly from our data, if they occured in-between our weather recording intervals... More about our weather records

Advertising

Macau weather history for previous 24 hours

 ConditionsComfort  
Time TempWeatherWind HumidityBarometerVisibility
1:00 AM
Thu, Jun 4
82 °FPassing clouds.12 mph89%29.80 "HgN/A
12:30 AM82 °FPassing clouds.10 mph89%29.80 "HgN/A
12:00 AM84 °FPassing clouds.7 mph79%29.83 "HgN/A
11:30 PM
Wed, Jun 3
84 °FPassing clouds.7 mph79%29.83 "HgN/A
11:00 PM84 °FPassing clouds.7 mph79%29.83 "HgN/A
10:30 PM84 °FPassing clouds.7 mph79%29.83 "HgN/A
10:00 PM84 °FPassing clouds.8 mph79%29.83 "HgN/A
9:30 PM84 °FPassing clouds.9 mph84%29.83 "HgN/A
9:00 PM84 °FPassing clouds.7 mph84%29.80 "HgN/A
8:30 PM84 °FPassing clouds.8 mph79%29.80 "HgN/A
8:00 PM84 °FPassing clouds.8 mph79%29.80 "HgN/A
7:30 PM84 °FPassing clouds.8 mph84%29.80 "HgN/A
7:00 PM84 °FPassing clouds.9 mph79%29.77 "HgN/A
6:30 PM86 °FPassing clouds.10 mph75%29.77 "HgN/A
6:00 PM86 °FPassing clouds.13 mph79%29.77 "HgN/A
5:30 PM86 °FPassing clouds.12 mph79%29.74 "HgN/A
5:00 PM88 °FPassing clouds.12 mph75%29.77 "HgN/A
4:30 PM88 °FPassing clouds.13 mph75%29.77 "HgN/A
4:00 PM88 °FPassing clouds.14 mph70%29.77 "HgN/A
3:30 PM88 °FPassing clouds.14 mph75%29.80 "HgN/A
3:00 PM88 °FPassing clouds.14 mph75%29.80 "HgN/A
2:30 PM88 °FPassing clouds.15 mph75%29.80 "HgN/A
2:00 PM88 °FPassing clouds.14 mph75%29.83 "HgN/A
1:30 PM88 °FScattered clouds.14 mph75%29.83 "HgN/A
1:00 PM88 °FPassing clouds.15 mph75%29.83 "HgN/A
12:30 PM88 °FPassing clouds.14 mph75%29.83 "HgN/A
12:00 PM88 °FPassing clouds.13 mph75%29.86 "HgN/A
11:30 AM88 °FPassing clouds.13 mph75%29.86 "HgN/A
11:00 AM88 °FPassing clouds.12 mph75%29.86 "HgN/A
10:30 AM88 °FPassing clouds.12 mph75%29.86 "HgN/A
10:00 AM88 °FPassing clouds.13 mph75%29.86 "HgN/A
9:30 AM86 °FPassing clouds.12 mph75%29.86 "HgN/A
9:00 AM86 °FPassing clouds.12 mph75%29.86 "HgN/A
8:30 AM86 °FPassing clouds.13 mph75%29.83 "HgN/A
8:00 AM86 °FPassing clouds.13 mph75%29.83 "HgN/A
7:30 AM84 °FPassing clouds.12 mph84%29.83 "HgN/A
7:00 AM84 °FPassing clouds.10 mph84%29.80 "HgN/A
6:30 AM84 °FPassing clouds.12 mph79%29.80 "HgN/A
6:00 AM82 °FScattered clouds.12 mph89%29.80 "HgN/A
5:30 AM82 °FPassing clouds.12 mph89%29.80 "HgN/A
5:00 AM84 °FPassing clouds.12 mph79%29.80 "HgN/A
4:30 AM82 °FPassing clouds.9 mph89%29.80 "HgN/A
4:00 AM82 °FPassing clouds.12 mph89%29.80 "HgN/A
3:30 AM82 °FPassing clouds.13 mph89%29.80 "HgN/A
3:00 AM82 °FSprinkles. Passing clouds.10 mph89%29.80 "Hg4 mi
2:30 AM82 °FPassing clouds.12 mph89%29.80 "HgN/A
2:00 AM84 °FPassing clouds.10 mph84%29.80 "HgN/A
Weather by CustomWeather, © 2015

See weather overviewHow to use our weather pages